#timestamp,LO_Frequency,Hit,StdDev 
1667332815.3,286046999.4,N
1667332835.1,286046998.7,N
1667332836.0,286046998.7,N
1667332855.8,286046998.6,N
1667332875.7,286046998.4,N
1667332895.5,286046998.4,N
1667332915.3,286046999.1,N
1667332935.2,286046999.0,N
1667332955.0,286046998.9,N
1667332955.9,286046998.9,N
1667332975.8,286046999.0,N
1667332995.6,286046999.3,N
1667333015.4,286046996.9,N
1667333035.3,286046996.5,N
1667333055.1,286046996.9,N
1667333075.9,286046996.8,N
1667333095.7,286046997.4,N
1667333115.5,286046997.4,N
1667333135.4,286046996.8,Y
1667333155.2,286047000.7,P
1667333175.0,286046998.5,N
1667333176.0,286046998.5,N
1667333195.8,286046999.4,N
1667333215.6,286046998.3,N
1667333235.5,286046998.2,N
1667333255.3,286047000.6,N
1667333275.1,286046998.2,N
1667333295.9,286046998.7,N
1667333315.7,286046998.9,N
1667333335.6,286046999.6,N
1667333355.4,286046998.3,N
1667333375.2,286046998.9,N
1667333395.1,286046996.6,Y
1667333396.0,286046996.6,P
1667333415.8,286046998.4,N
1667333435.7,286046998.5,N
1667333455.5,286046998.8,N
1667333475.3,286046998.3,N
1667333495.2,286046999.2,N
1667333515.0,286046999.4,N
1667333515.9,286046999.4,N
1667333535.8,286046998.9,N
1667333555.6,286046998.4,N
1667333575.4,286047000.2,N
1667333595.3,286047000.5,N
1667333615.1,286046999.9,N
1667333635.8,286046999.8,N
1667333655.7,286047000.8,N
1667333675.5,286046999.9,N
1667333695.4,286047000.3,N
1667333715.2,286047000.1,N
1667333735.0,286047002.0,N
1667333735.9,286047002.0,N
1667333755.8,286046999.7,N
1667333775.6,286046999.7,N
1667333795.4,286047000.4,N
1667333815.3,286046999.7,N
1667333835.1,286047000.2,N
1667333855.9,286047000.0,N
1667333875.7,286047001.8,N
1667333895.5,286047001.8,N
1667333915.4,286047001.8,N
1667333935.2,286047011.9,Y
1667333955.0,286047004.4,P
1667333956.0,286047004.4,N
1667333975.8,286047002.1,N
1667333995.6,286047001.9,N
1667334015.5,286047001.6,N
1667334035.3,286047003.9,N
1667334055.1,286047001.3,N
1667334075.9,286047002.6,N
1667334095.7,286047004.2,N
1667334115.5,286047004.3,N
1667334135.4,286047004.0,N
1667334155.2,286047003.6,N
1667334175.1,286047005.5,Y
1667334176.0,286047005.5,P
1667334195.8,286047001.9,N
1667334215.6,286047004.4,N
1667334235.5,286047004.0,N
1667334255.3,286047003.6,N
1667334275.2,286047004.1,Y
1667334295.9,286046998.2,P
1667334315.7,286046998.4,N
1667334335.6,286046998.8,N
1667334355.4,286046995.1,N
1667334375.2,286046995.5,N
1667334395.1,286046997.5,N
1667334396.0,286046997.5,N
1667334415.8,286046997.8,N
1667334435.7,286046994.9,N
1667334455.5,286046997.4,N
1667334475.3,286046998.0,N
1667334495.2,286046997.8,N
1667334515.0,286046996.7,N
1667334515.9,286046996.7,N
1667334535.8,286046997.0,N
1667334555.6,286046996.8,N
1667334575.4,286046997.4,N
1667334595.3,286046999.6,N
1667334615.1,286046997.3,N
1667334635.9,286046999.5,N
1667334655.7,286046999.0,N
1667334675.5,286046999.8,N
1667334695.4,286047000.0,N
1667334715.2,286047002.6,N
1667334735.0,286047002.5,N
1667334766.0,286047000.0,E
1667334775.9,286047000.5,N
1667334795.7,286047000.1,P
1667334815.6,286047000.0,N
1667334835.4,286046999.7,N
1667334855.2,286047001.0,Y
1667334875.1,286047001.0,P
1667334876.0,286047001.0,N
1667334895.8,286046998.7,P
1667334915.7,286046996.9,Y
1667334935.5,286046998.7,P
1667334955.3,286046999.6,N
1667334975.2,286046999.0,N
1667334995.0,286047001.2,N
1667334995.9,286047001.2,N
1667335015.8,286047000.9,N
1667335035.6,286047000.0,N
1667335055.4,286047000.3,N
1667335075.3,286047002.7,Y
1667335095.1,286047002.8,P
1667335115.8,286047002.5,N
1667335135.7,286047002.2,N
1667335155.5,286047001.6,N
1667335175.4,286047004.3,Y
1667335195.2,286047000.2,P
1667335215.0,286047000.8,N
1667335215.9,286047000.8,N
1667335235.8,286046998.2,Y
1667335255.6,286046996.6,P
1667335275.5,286046998.5,N
1667335295.3,286046999.2,N
1667335315.1,286046999.4,N
1667335335.9,286046998.7,N
1667335355.7,286046998.7,N
1667335375.5,286046998.9,N
1667335395.7,286046999.2,N
1667335415.5,286046999.0,N
1667335435.4,286046998.3,N
1667335455.2,286046999.2,N
1667335475.0,286046998.6,N
1667335475.9,286046998.6,N
1667335495.8,286046998.7,N
1667335515.6,286046999.0,N
1667335535.5,286047001.2,N
1667335555.3,286046999.5,N
1667335575.1,286046999.0,N
1667335595.9,286046999.5,N
1667335615.7,286046996.5,Y
1667335635.5,286047000.8,P
1667335655.4,286046998.5,N
1667335675.2,286046999.3,N
1667335695.1,286046997.0,Y
1667335696.0,286046997.0,P
1667335715.8,286047000.7,N
1667335735.6,286047000.7,N
1667335755.5,286047000.6,N
1667335775.3,286047000.6,N
1667335795.2,286047001.0,N
1667335815.9,286047000.2,N
1667335835.7,286047000.7,N
1667335855.6,286047001.7,N
1667335875.4,286047002.2,N
1667335895.2,286047002.5,N
1667335915.1,286047002.8,N
1667335916.0,286047002.8,N
1667335935.8,286047000.4,N
1667335955.2,286047001.0,N
1667335975.0,286047000.8,N
1667335975.9,286047000.8,N
1667335995.8,286047000.9,N
1667336015.6,286046999.9,N
1667336035.4,286046999.8,N
1667336055.3,286047001.2,N
1667336075.1,286047000.9,N
1667336095.8,286046998.1,N
1667336115.7,286046998.3,N
1667336135.5,286046999.1,N
1667336155.4,286046999.0,N
1667336175.2,286046999.4,N
1667336195.0,286046998.2,N
1667336195.9,286046998.2,N
1667336215.8,286047000.8,N
1667336235.6,286047002.8,N
1667336255.4,286047001.9,N
1667336275.3,286047001.8,N
1667336295.1,286047001.9,N
1667336315.9,286047000.8,N
1667336335.7,286046998.1,N
1667336355.5,286046998.5,N
1667336375.4,286047000.9,N
1667336395.2,286046998.8,N
